Location: �couen
(49.0206°N, 2.3831°E)
Time: 06:26:42
(UTC+00:00)

Cosmos 1758 - Pass Details

Date: 07 June 2022
Orbit: 538 x 557 km, 82.5° (Epoch: 03 July)

Event Time Altitude Azimuth Distance (km) Brightness Sun altitude
Rises 21:16:12 0° 359° (N) 2,727 7.9 -10.5°
Reaches altitude 10° 21:18:37 10° 11° (NNE) 1,832 6.6 -10.7°
Maximum altitude 21:22:06 27° 71° (ENE) 1,070 4.6 -11.0°
Enters shadow 21:24:45 15° 123° (ESE) 1,559 5.1 -11.3°
